Powrót do katalogu

STARLINK-34882

AktywnyŁącznośćVLEO
NORAD 66227·PAYLOAD·🇺🇸 United States

Wystrzelony Oct 28, 2025 z Vandenberg Space Force Base

Loading…

Następne Przeloty (najbliższe 24 godziny)

TLE

ŚwieżeSource: CelesTrak SupGP

Epoka: Sep 15, 2026, 03:59 UTC

1 66227C 25244X   26258.16645833 -.00016177  00000+0 -47805-3 0  2587
2 66227  53.1581  66.5509 0001137  93.3780 322.6399 15.34393016    11

Śledź STARLINK-34882 w czasie rzeczywistym z AllMySat

Download on the App Store